User: anonymous
Location: Wildcat Hills Observatory
(41.6350°N, 103.6812°W)
Time: 04:06:48
(UTC-06:00)
Language:

Cosmos 1634 Rocket - Orbit

View from above orbital plane
View from above orbital plane
View from above satellite
View from above satellite

Ground track
Ground track

The orbit data is extracted from the following two-line orbital elements,

1 15598U 85022B   14108.52326307  .00000141  00000-0  12837-3 0  6286
2 15598 082.9375 246.0360 0023545 101.8667 327.4608 13.76484515461480
Epoch (UTC): 18 April 2014 12:33:29
Eccentricity: 0.0023545
inclination: 82.9375°
perigee height: 959 km
apogee height: 994 km
right ascension of ascending node: 246.0360°
argument of perigee: 101.8667°
revolutions per day: 13.76484515
mean anomaly at epoch: 327.4608°
orbit number at epoch: 46148

The dashed part of the orbit path shows where the satellite is in the earth's shadow,  

DLR